www.pogodaiklimat.ru

Погода и климат >> Архив погоды >> Россия >> Красноярский край >> Северо-Енисейский


АРХИВ ПОГОДЫ в Северо-Енисейском

Время (UTC), дата Ветер
(напр.,м/с)
 
Видим.   Явления Облачность Т
(С)
Тd
(С)
f
(%)
Тe
(С)
Тes
(С)
Комфортность P
(гПа)
Po
(гПа)
Тmin
(С)
Tmax
(С)
R
(мм)
R24
(мм)
S
(см)
15 12.06 ЮЗ 1 4000 м дымка 10/10 300 м
[Cb calv]
+13.2 +12.8 97 +13 +13 1002.2 943.5
18 12.06 Ю 1 н/о слаб. ливневой дождь 10/10 300 м
[Cb calv]
+13.3 +12.9 97 +13 +13 1002.9 944.2
21 12.06 ЮЗ 2 50 км {ливн. осадки} 10/10 300 м
[Cb calv]
+14.3 +13.9 97 +14 +14 1001.8 943.4
00 13.06 Ю 2 50 км {ливн. осадки} 9/6 300 м
[Cb calv Ac trans]
+15.0 +13.8 93 +15 +15 999.0 940.9 +12.6 27
03 13.06 ЮЗ 5
{10}
50 км 4/3 600 м
[Cu med, cong Ac trans]
+21.0 +11.5 55 +23 +27 комфорт 996.7 939.8
06 13.06 ЮЗ 6
{14}
50 км 9/8 300 м
[Cb calv Ac trans]
+21.7 +9.7 46 +23 +24 комфорт 995.9 939.1
09 13.06 ЮЗ 2
{17}
50 км гроза без осадков {ливн. осадки} 8/6 600 м
[Cb cap Ac trans]
+19.3 +13.9 71 +21 +24 комфорт 997.2 940.1
12 13.06 Ю 2
{12}
50 км {гроза, ливн. осадки} 9/3 600 м
[Cb calv Ac trans Ci fib]
+19.4 +14.0 71 +22 +22 комфорт 996.9 939.8 +23.2 4
15 13.06 Ю 2 50 км 9/3 600 м
[Cb calv Ac trans Ci fib]
+17.9 +11.3 65 +18 +18 995.6 938.2
18 13.06 З 4
{12}
н/о 10/6 300 м
[Cb calv As op]
+16.3 +10.7 69 +16 +16 995.9 938.2
21 13.06 Ю 1 20 км слаб. ливневой дождь 10/10 300 м
[Cb calv]
+13.1 +12.4 96 +13 +13 995.9 937.6
00 14.06 ЮЗ 3 50 км {ливн. осадки} 9/9 300 м
[Cb calv]
+14.2 +12.2 88 +13 +13 995.0 936.9 +12.4 2
03 14.06 ЮЗ 5
{12}
50 км 10/10 300 м
[Cb calv]
+16.4 +13.8 85 +15 +15 993.7 936.2
06 14.06 З 4
{14}
50 км {ливн. осадки} 10/10 300 м
[Cb calv]
+11.1 +9.1 87 +9 +9 998.1 939.2
09 14.06 З 4 50 км 8/8 300 м
[Cb calv]
+14.4 +5.8 56 +13 +15 999.1 940.7
12 14.06 З 4 50 км 6/6 300 м
[Cb calv]
+13.9 +5.2 56 +13 +13 1000.9 942.3 +16.9 2
15 14.06 СЗ 2 50 км 3/3 300 м
[Cb calv]
+10.9 +5.5 69 +10 +10 1003.1 943.8
18 14.06 штиль 0 н/о 3/0
[Ac trans]
+5.3 +3.6 89 +4 +4 1006.3 945.5
21 14.06 штиль 0 50 км 3/0
[Ac trans]
+4.8 +3.8 93 +4 +4 1006.8 945.9
00 15.06 штиль 0 50 км 8/0
[Ac trans]
+9.4 +5.0 74 +9 +11 1006.0 946.2 +4.1
03 15.06 ЮЗ 2 50 км 8/0
[Ac trans]
+13.7 +5.2 56 +13 +19 1005.2 946.4
06 15.06 ЮЗ 2 50 км 10/10 300 м
[Cb calv]
+14.3 +4.9 53 +14 +14 1004.5 945.8
09 15.06 З 3 20 км слаб. ливневой дождь 10/10 300 м
[Cb calv]
+12.1 +8.5 79 +11 +11 1005.3 946.2
12 15.06 СЗ 2 50 км {ливн. осадки} 10/10 300 м
[Cb calv]
+11.2 +7.2 76 +10 +10 1007.1 947.6 +15.0 0.5
15 15.06 СЗ 1 50 км {ливн. осадки} 8/4 300 м
[Cb calv Ac trans]
+8.9 +7.0 88 +8 +8 1008.1 948.1
18 15.06 СВ 3 н/о {ливн. осадки} 9/5 300 м
[Cb calv Ci fib]
+7.6 +5.8 88 +5 +5 1010.8 950.3
21 15.06 СВ 2 50 км 9/0
[Ac trans Ci fib]
+4.3 +2.8 90 +1 +1 1011.0 949.7
00 16.06 В 2 50 км 10/6 300 м
[Cb calv As trans]
+8.1 +5.7 85 +6 +7 1009.9 949.5 +4.3 0.0
03 16.06 ЮВ 2 50 км 9/8 300 м
[Cb calv Ac trans]
+12.1 +6.4 68 +11 +13 1006.1 946.9
06 16.06 В 2 50 км 10/10 300 м
[Cb calv]
+15.6 +8.3 62 +16 +16 1004.4 946.0
09 16.06 ЮВ 2 50 км 8/3 300 м
[Cb calv Ac trans Ci fib]
+17.9 +9.8 59 +18 +23 1003.7 945.8
12 16.06 ЮВ 1 50 км 9/8 300 м
[Cb calv Ac trans]
+20.2 +11.3 57 +23 +23 комфорт 1001.9 944.6 +20.6
15 16.06 ЮВ 1 50 км 9/8 300 м
[Cb calv Ac trans]
+19.1 +11.9 63 +21 +21 комфорт 1002.4 944.9
18 16.06 ЮЗ 3 н/о {гроза, ливн. осадки} 10/10 300 м
[Cb calv]
+17.1 +13.2 78 +17 +17 1002.3 944.4
21 16.06 Ю 1 20 км гроза, ливневой дождь 10/10 300 м
[Cb cap]
+14.3 +13.4 94 +15 +15 1001.4 943.0
00 17.06 В 1 50 км {гроза, ливн. осадки} 10/10 300 м
[Cb calv]
+15.2 +13.4 89 +16 +16 1000.6 942.4 +14.0 0.5
03 17.06 ЮЗ 1 10 км слаб. ливневой дождь 10/10 200 м
[Cb calv]
+16.3 +14.2 87 +17 +17 1000.3 942.3
06 17.06 З 2 10 км слаб. ливневой дождь {гроза} 10/10 200 м
[Cb calv]
+14.0 +12.5 91 +13 +13 1002.1 943.6
09 17.06 З 5
{10}
4000 м слаб. ливневой дождь 10/10 100 м
[Cb calv]
+11.7 +10.7 94 +9 +9 1003.1 944.1
12 17.06 З 4
{10}
10 км слаб. ливневой дождь 10/10 200 м
[Cb calv]
+11.0 +10.0 94 +8 +8 1004.1 944.8 +16.7 23
15 17.06 ЮЗ 3 10 км {ливн. осадки} 10/10 200 м
[Cb calv]
+10.4 +9.4 94 +8 +8 1004.4 945.0
18 17.06 З 4
{10}
н/о слаб. ливневой дождь 10/10 200 м
[Cb calv]
+8.9 +8.1 95 +6 +6 1008.8 948.7
21 17.06 З 3 10 км {ливн. осадки} 10/10 200 м
[Cb calv]
+8.1 +7.0 93 +5 +5 1009.6 949.4
00 18.06 ЮЗ 2 20 км {ливн. осадки} 10/10 200 м
[Cb calv]
+8.8 +7.5 92 +7 +7 1011.5 951.3 +7.6 0.6
03 18.06 ЮЗ 3 50 км 4/4 300 м
[Cb calv]
+13.7 +8.1 69 +13 +18 1010.7 951.5
06 18.06 ЮЗ 4
{12}
50 км 8/8 300 м
[Cb calv]
+16.2 +7.2 55 +16 +17 1009.7 951.1
09 18.06 ЮЗ 3 50 км {ливн. осадки} 8/8 300 м
[Cb calv]
+17.9 +7.4 50 +18 +20 1008.8 950.5
12 18.06 Ю 3 50 км {ливн. осадки} 4/4 300 м
[Cb calv]
+18.8 +4.4 39 +19 +20 1008.2 950.1 +19.2 0.8
15 18.06 штиль 0 50 км 3/1 600 м
[Cb calv Ci fib]
+14.5 +6.5 59 +14 +14 1009.0 950.0
18 18.06 штиль 0 н/о ясно +11.3 +5.7 68 +11 +11 1010.6 950.9
21 18.06 ЮВ 2 50 км 9/0
[As trans Ci fib]
+12.3 +5.9 65 +12 +12 1008.3 949.0
00 19.06 ЮВ 5 50 км 10/8 600 м
[Cb calv As trans]
+12.4 +5.8 64 +10 +10 1007.1 947.8 +10.8
03 19.06 ЮВ 2 20 км слаб. ливневой дождь 10/8 300 м
[Cb calv As trans]
+13.3 +6.9 65 +13 +14 1004.8 945.9
06 19.06 Ю 6
{13}
50 км {ливн. осадки} 10/10 300 м
[Cb calv]
+19.0 +6.7 45 +19 +19 1002.0 944.3
09 19.06 ЮЗ 3
{12}
50 км 10/10 300 м
[Cb calv]
+17.3 +8.6 57 +17 +17 1002.6 944.6
12 19.06 З 5
{10}
50 км 9/6 300 м
[Cb calv Ac trans]
+17.0 +7.7 54 +16 +17 1003.7 945.6 +19.1 0.0

 

Местоположение метеостанции Северо-Енисейский (Красноярский край, Россия): широта 60.38 долгота 93.03 высота над уровнем моря 511 м.

В архиве по умолчанию представлена погода в Северо-Енисейском за последнюю неделю. Архивные данные за месяц целиком и за предыдущие месяцы, начиная с января 2011 года, Вы можете получить, выбрав интересующий диапазон дат из раскрывающегося списка и нажав кнопку "Ввод!".


*Определитесь, кто Вы:
робот инопланетянин человек

Внимание! Время в таблицах - всемирное. Для получения местного времени необходимо прибавить поправку, которая равна 7 ч.

Смотрите также архив погоды в соседних городах и на ближайших метеорологических станциях:

Погода в Вельмо (Красноярский край, Россия) (74 км)
Погода в Назимово (Красноярский край, Россия) (149 км)
Погода в Ярцево (Красноярский край, Россия) (155 км)
Погода в Ворогово (Красноярский край, Россия) (199 км)
Погода в Бору (Красноярский край, Россия) (212 км)
Погода в Енисейске (Красноярский край, Россия) (220 км)
Погода в Кузьмовке (Эвенкия, Россия) (221 км)
Погода в Байките (Эвенкия, Россия) (230 км)
Погода в Александровском Шлюзе (Красноярский край, Россия) (234 км)
Погода в Усть-Камо (Эвенкия, Россия) (248 км)

Пояснения к столбцам:

Ветер - указаны скорость ветра в м/с - средняя за 10 мин, порывы в срок и между сроками (в фигурных скобках) и направление, откуда дует ветер: С - северный, СВ - северо-восточный, В - восточный, ЮВ - юго-восточный, Ю - южный, ЮЗ - юго-западный, З - западный, СЗ - северо-западный.
Видимость - горизонтальная дальность видимости в метрах или километрах. При видимости от 1 до 10 км при отсутствии осадков обычно наблюдается дымка, при ухудшении видимости до 1 км и менее - туман. В сухую погоду видимость может ухудшаться дымом, пылью или мглою.
Явления - указаны атмосферные явления, наблюдавшиеся в срок или в последний час перед сроком; фигурными скобками обозначены явления, наблюдавшиеся между сроками (за 1-3 часа до срока); квадратными скобками обозначены град или гололедные отложения с указанием их диаметра в мм.
Облачность - указаны через наклонную черту общая и нижняя облачность в баллах и высота нижней границы облаков в метрах; квадратными скобками обозначены формы облаков: Ci - перистые, Cs - перисто-слоистые, Cc - перисто-кучевые, Ac - высококучевые, As - высокослоистые, Sc - слоисто-кучевые, Ns - слоисто-дождевые, Cu - кучевые, Cb - кучево-дождевые. Подробнее классификацию облаков см. в Атласе облаков (PDF).
T - Температура воздуха - температура, измеренная на высоте 2 м над землей.
Td - Температура точки росы - температура, при понижении до которой содержащийся в воздухе водяной пар достигнет насыщения.
f - Относительная влажность воздуха - влажноcть воздуха, измеренная на высоте 2 м над землей.
Te - Эффективная температура - температура, которую ощущает одетый по сезону человек в тени. Характеристика душности погоды. При расчете учитывается влияние влажности воздуха и скорости ветра на теплоощущения человека.
Tes - Эффективная температура на солнце - температура, которую ощущает человек, с поправкой на солнечный нагрев. Характеристика знойности погоды. Зависит от высоты солнца над горизонтом, облачности и скорости ветра. Ночью, в пасмурную погоду, а также при ветре 12 м/с и более поправка равна нулю.
P - Атмосферное давление - приведенное к уровню моря атмосферное давление.
Po - Атмосферное давление - измеренное на уровне метеостанции атмосферное давление.
Tmin - Минимальная температура - минимум температуры воздуха на высоте 2 м над землей.
Tmax - Максимальная температура - максимум температуры воздуха на высоте 2 м над землей.
R - Количество осадков - Количество выпавших осадков за период времени, мм. При наведении курсора мыши на число - период времени, за который выпало указанное количество осадков.
R24 - Количество осадков - Количество выпавших осадков за 24 часа, мм.
S - Снежный покров - Высота снежного покрова, см. При наведении курсора мыши на число - состояние снежного покрова и степень покрытия местности в баллах.